Flag for Canada Weather past 2 weeks in Saanich, British Columbia, Canada

Now
70 °F

Passing clouds.


Feels Like: 70 °F
Forecast: 56 / 70 °F
Wind: 6 mph from East

Location: Victoria Int. Airportb. C.

Current Time: Jul 29, 2014 at 8:57:38 PM

Latest Report: Jul 29, 2014 at 8:00 PM


Visibility: 30 mi

Pressure: 30.03 "Hg

Humidity: 53%

Dew point: 52 °F

Location of SaanichLocation

Historic Weather in Saanich — Graph

°F

Saanich temperature yesterday

Maximum temperature yesterday: 81 °F (at 3:00 PM)
Minimum temperature yesterday: 57 °F (at 2:00 AM)
Average temperature yesterday: 68 °F

Past Weeks' High & Low Weather Summary

 TemperatureHumidityPressure
High81 °F (Jul 28, 3:00 PM)94% (Jul 15, 1:00 AM)30.21 "Hg (Jul 15, 1:00 AM)
Low52 °F (Jul 15, 5:00 AM)39% (Jul 27, 6:00 PM)29.90 "Hg (Jul 16, 9:00 PM)
Average62 °F73%30.04 "Hg
* Reported Jul 14 8:00 PM — Jul 29 8:00 PM, Saanich, Weather by CustomWeather, © 2014

Note: Actual official high and low records may vary slightly from our data, if they occured in-between our weather recording intervals... More about our weather records

Advertising

Saanich weather history for previous 24 hours

 ConditionsComfort  
Time TempWeatherWind HumidityBarometerVisibility
8:00 PM
Jul 29
70 °FPassing clouds.6 mph53%30.03 "Hg30 mi
7:00 PM77 °FPassing clouds.6 mph44%30.03 "Hg30 mi
6:00 PM75 °FPassing clouds.7 mph47%30.04 "Hg30 mi
5:00 PM79 °FPassing clouds.7 mph45%30.06 "Hg30 mi
4:00 PM75 °FPassing clouds.7 mph50%30.09 "Hg30 mi
3:00 PM75 °FPassing clouds.7 mph50%30.10 "Hg30 mi
2:00 PM73 °FSunny.8 mph53%30.12 "Hg30 mi
1:00 PM72 °FSunny.7 mph57%30.12 "Hg30 mi
12:00 PM70 °FSunny.7 mph57%30.14 "Hg30 mi
11:00 AM68 °FSunny.7 mph64%30.14 "Hg30 mi
10:00 AM68 °FSunny.6 mph64%30.13 "Hg30 mi
9:00 AM63 °FSunny.6 mph68%30.14 "Hg30 mi
8:00 AM63 °FSunny.3 mph73%30.13 "Hg30 mi
7:00 AM59 °FSunny.No wind82%30.12 "Hg30 mi
6:00 AM54 °FClear.No wind88%30.11 "Hg30 mi
5:00 AM55 °FClear.No wind82%30.10 "Hg30 mi
4:00 AM55 °FClear.2 mph82%30.09 "Hg30 mi
3:00 AM55 °FClear.2 mph88%30.08 "Hg30 mi
2:00 AM57 °FClear.2 mph77%30.07 "Hg30 mi
1:00 AM59 °FClear.2 mph72%30.07 "Hg30 mi
12:00 AM61 °FClear.2 mph72%30.07 "Hg30 mi
11:00 PM
Jul 28
63 °FClear.No wind73%30.06 "Hg30 mi
10:00 PM61 °FPassing clouds.No wind72%30.06 "Hg30 mi
9:00 PM64 °FPassing clouds.5 mph68%30.05 "Hg30 mi
8:00 PM70 °FPassing clouds.5 mph57%30.05 "Hg30 mi
Weather by CustomWeather, © 2014

See weather overviewHow to use our weather pages